星链-2757 (STARLINK-2757 )

导读

STARLINK-2757是美国SpaceX公司于2021年5月15日发射的星链低轨通信卫星。星链星座旨在为全球提供宽带互联网服务,该星采用平板设计,搭载Ku和Ka波段通信载荷,配备氪工质霍尔推进器,具备自主避撞能力,设计寿命约5-7年,退役后将主动离轨再入大气层烧毁。

基本信息
目录编号:
48604
目录名称:
STARLINK-2757
国际标识:
2021-041BD
轨道中心:
EARTH
卫星名称:
星链-2757
卫星全名:
星链-2757 (STARLINK-2757 )
卫星状态:
在轨 (已飞行1939 天)
发射日期:
2021-05-15 UTC
国别 :
美国 (US)
星等 :
--
轨道信息
数据来源 国际轨道数据 AOE轨道数据
星历时间 2026-09-05T06:13:53+0800
13小时前
查看轨道信息
2026-09-02T17:00:00+0800
3天前
查看轨道信息
半长轴 6848.708km 6848.869km
偏心率 0.0001112 0.0001351
轨道倾角 53.161° 53.160°
近地点辐角 102.546° 113.316°
升交点赤经 34.812° 46.697°
平近点角 257.567° 210.528°
近地点 469.809km 469.806km
远地点 471.333km 471.658km
周期 94.010分钟 94.013分钟
每日圈数 15.317568 15.317027
详细信息
固有亮度:
5
最大亮度:
2.5
卫星平台:
Starlink V1.0
覆盖范围:
全球
运营商:
太空探索技术公司
运营商所在国:
美国
制造商(研发单位):
太空探索技术公司
制造商所在国:
美国
使用方式:
暂无
卫星简介
星链(Starlink)计划是由太空探索技术公司(SpaceX)提出的一个巨型低轨卫星互联网星座项目,计划在2019年至2024年间在太空搭建由约1.2万颗卫星组成的“星链”网络,其中1584颗将部署在地球上空550千米处的近地轨道,并从2020年开始工作。该卫星仍在工作。
2D轨道图
3D轨道图
轨道高度分析图
轨道倾角分析图
轨道综合分析图
查看轨道综合分析图
交会数据列表
事件ID 空间交会对象 最接近时刻(TCA) 交会距离 交会风险概率(CRP) 交会风险指数(CRI) 操作
CDM_260907-122504-860404-864621
2026-09-07T
12:25:47+0000
0.545 km
远距离
7.122822E-5 中风险 0.72
CDM_260907-175404-860404-864621
2026-09-07T
17:54:38+0000
1.380 km
极远距离
3.477505E-6 低风险 0.46
CDM_260907-192804-860404-864621
2026-09-07T
19:28:36+0000
1.458 km
极远距离
2.921515E-6 低风险 0.44
CDM_260903-181904-860405-850222
OBJECT A (58502)
2026-09-03T
18:19:49+0000
2.176 km
极远距离
2.233658E-6 低风险 0.42
CDM_260905-222004-860406-063021
2026-09-05T
22:20:43+0000
2.733 km
极远距离
1.475731E-6 低风险 0.38
CDM_260905-092904-860406-886021
2026-09-05T
09:29:34+0000
2.822 km
极远距离
1.381935E-6 低风险 0.38
CDM_260906-015804-860406-874721
2026-09-06T
01:58:48+0000
2.716 km
极远距离
1.26136E-6 低风险 0.37
CDM_260907-135904-860404-864621
2026-09-07T
13:59:45+0000
1.997 km
极远距离
1.229439E-6 低风险 0.37